THORAD AGENA D DEB, 42497

Orbit data source: Space-Track

THORAD AGENA D DEB, 42497 is space debris in SSO originally from a launch on Wed, 08 Apr 1970 UTC launched from the Air Force Western Test Range (AFWTR). Debris objects in space refer to the collection of defunct objects orbiting the Earth. Examples of debris include non-operational satellites, rocket bodies, and fragments generated from explosions, collisions, or faulty payload assembly.

Loading next visibility...
Identifier
42497, 1970-025RB
Orbit
SSO
Country
Flag of USUS
Related business
Manufacturer
Unknown
Mission
Spacecraft
Bus & Motor
Unknown
Mass
Unknown
Launch date (UTC)
1970-04-08 (56 years ago)
Launch vehicle
Unknown
Launch site
Air Force Western Test Range (AFWTR)
Object type
Payload
Rocket body
Debris
Shape & HBR
Unknown shape, 0.050 m
Radar Cross Section
Small (<0.1 m²)

Expand to show TLE details & history
Last TLE update: 14 hours ago

TLE from 14 hours ago
0 THORAD AGENA D DEB
1 42497U 70025RB  26266.88112832  .00001098  00000-0  77507-3 0  9992
2 42497  99.9852 157.1619 0031180 253.0939 106.6802 14.00247003651897
Epoch: 2026-09-23T21:08Z
TLE epoch observation values (Epoch: 2026-09-23T21:08:49.486Z)
Latitude
-0.00013°
Longitude
-162.77016°
Altitude
902.357 km
Speed
7.398 km/s
True Right ascension
10h 28m 38s
True Declination
0° 00' 00"
Sunlit
Object was in daylight at epoch
Visualization orbit readout
Latitude
Unknown
Longitude
Unknown
Altitude
Unknown
Speed
Unknown
Apparent Right ascension
Unknown
Apparent Declination
Unknown
Sunlit
N/A
Visualization observer readout
Local Sidereal Time
03:51:31
Azimuth
Unknown
Elevation
Unknown
Doppler factor
Unknown
Orbital elements
Apogee altitude
912.852 km
Perigee altitude
867.527 km
Semi-major axis
7,268.327 km
Eccentricity
0.00312
Inclination
99.9852°
RAAN
157.1619°
Arg. of periapsis
253.0939°
True anomaly
107.02208°
Mean anomaly
106.6802°
Eccentric anomaly
106.85118°
Mean motion
3.50261 °/min
Orbital period
102.78 mins
BSTAR
0.00077507

Documentation

Showing up to 5 results
|